LUJ107 EGCC-TNCM

Flight info

Callsign LUJ107
Flight time N/A
Altitude 32000
Route KUXEM UP17 NOKIN DCT MORAG DCT CML DCT CRK DCT GIPER/M079F320 DCT EPUNA DCT RODEL DCT 49N020W 45N030W 39N040W 31N050W 22N060W/N0467F320 DCT MNOLO ULUBA1
Aircraft B738/M-SDE2E3FGHIRWXY/LB1

Departure

Time 2026-05-05 08:09
Airport Manchester Airport (EGCC)

Arrival

Time N/A
Airport Princess Juliana International Airport (TNCM)
Time Latitude Longitude Altitude Speed Heading
2026-05-05 07:41 53.35931 -2.28015 254 ft 0 kts 276°
2026-05-05 07:57 53.35930 -2.27999 254 ft 4 kts 275°
2026-05-05 07:58 53.35929 -2.27954 254 ft 4 kts 269°
2026-05-05 07:58 53.35931 -2.27909 254 ft 4 kts 262°
2026-05-05 07:58 53.35937 -2.27867 254 ft 4 kts 242°
2026-05-05 07:58 53.35952 -2.27841 254 ft 2 kts 188°
2026-05-05 07:59 53.35953 -2.27841 254 ft 2 kts 186°
2026-05-05 08:02 53.35948 -2.27842 254 ft 2 kts 186°
2026-05-05 08:03 53.35926 -2.27846 254 ft 5 kts 186°
2026-05-05 08:03 53.35895 -2.27850 254 ft 3 kts 184°
2026-05-05 08:03 53.35866 -2.27840 254 ft 6 kts 154°
2026-05-05 08:03 53.35831 -2.27774 254 ft 10 kts 131°
2026-05-05 08:04 53.35772 -2.27673 254 ft 14 kts 150°
2026-05-05 08:04 53.35684 -2.27608 255 ft 13 kts 149°
2026-05-05 08:04 53.35632 -2.27543 255 ft 7 kts 141°
2026-05-05 08:04 53.35595 -2.27493 255 ft 7 kts 140°
2026-05-05 08:05 53.35559 -2.27442 255 ft 7 kts 140°
2026-05-05 08:05 53.35507 -2.27372 254 ft 11 kts 143°
2026-05-05 08:05 53.35445 -2.27290 254 ft 12 kts 141°
2026-05-05 08:05 53.35373 -2.27202 249 ft 14 kts 157°
2026-05-05 08:06 53.35277 -2.27209 245 ft 14 kts 192°
2026-05-05 08:06 53.35184 -2.27242 244 ft 13 kts 192°
2026-05-05 08:06 53.35131 -2.27259 243 ft 6 kts 191°
2026-05-05 08:06 53.35092 -2.27272 242 ft 6 kts 191°
2026-05-05 08:07 53.35053 -2.27285 241 ft 6 kts 191°
2026-05-05 08:07 53.35014 -2.27300 240 ft 6 kts 206°
2026-05-05 08:07 53.34991 -2.27354 239 ft 4 kts 236°
2026-05-05 08:07 53.34988 -2.27362 238 ft 0 kts 235°
2026-05-05 08:08 53.34981 -2.27376 238 ft 6 kts 233°
2026-05-05 08:08 53.34856 -2.27638 231 ft 65 kts 231°
2026-05-05 08:08 53.34417 -2.28547 221 ft 134 kts 231°
2026-05-05 08:08 53.33712 -2.30005 301 ft 181 kts 233°
2026-05-05 08:09 53.32917 -2.31648 1203 ft 180 kts 233°
2026-05-05 08:09 53.32129 -2.33325 1989 ft 186 kts 243°
2026-05-05 08:09 53.31888 -2.35386 2497 ft 187 kts 285°
2026-05-05 08:09 53.32195 -2.37464 3317 ft 180 kts 287°
2026-05-05 08:10 53.32473 -2.39544 3754 ft 196 kts 285°
2026-05-05 08:10 53.32741 -2.41918 3889 ft 220 kts 274°
2026-05-05 08:10 53.32442 -2.44558 4104 ft 241 kts 255°
2026-05-05 08:10 53.31914 -2.47285 4492 ft 253 kts 252°
2026-05-05 08:11 53.31325 -2.50241 4607 ft 279 kts 255°
2026-05-05 08:11 53.30753 -2.53313 5214 ft 277 kts 255°
2026-05-05 08:11 53.30181 -2.56433 4949 ft 280 kts 255°
2026-05-05 08:11 53.29598 -2.59488 4956 ft 271 kts 251°
2026-05-05 08:12 53.28840 -2.62332 4993 ft 267 kts 247°
2026-05-05 08:12 53.27857 -2.64949 4986 ft 271 kts 226°
2026-05-05 08:12 53.26345 -2.66878 5293 ft 276 kts 217°
2026-05-05 08:12 53.24762 -2.68681 6109 ft 274 kts 216°
2026-05-05 08:13 53.23174 -2.70493 6772 ft 279 kts 216°
2026-05-05 08:13 53.21596 -2.72302 7533 ft 277 kts 217°
2026-05-05 08:13 53.20007 -2.74131 8253 ft 279 kts 217°
2026-05-05 08:13 53.18402 -2.75980 8948 ft 281 kts 217°
2026-05-05 08:14 53.16794 -2.77833 9674 ft 282 kts 217°
2026-05-05 08:14 53.15173 -2.79702 10293 ft 286 kts 217°
2026-05-05 08:14 53.13479 -2.81656 10502 ft 306 kts 217°
2026-05-05 08:14 53.11679 -2.83732 10688 ft 325 kts 217°
2026-05-05 08:15 53.09772 -2.85951 10830 ft 344 kts 219°
2026-05-05 08:15 53.08104 -2.88905 10951 ft 359 kts 239°
2026-05-05 08:15 53.07095 -2.92748 11217 ft 369 kts 257°
2026-05-05 08:15 53.06589 -2.96968 11664 ft 376 kts 260°
2026-05-05 08:16 53.06128 -3.01256 12268 ft 377 kts 260°
2026-05-05 08:16 53.05674 -3.05553 12909 ft 379 kts 260°
2026-05-05 08:16 53.05210 -3.09888 13410 ft 383 kts 260°
2026-05-05 08:16 53.04730 -3.14268 13967 ft 387 kts 260°
2026-05-05 08:17 53.04238 -3.18679 14476 ft 389 kts 259°
2026-05-05 08:17 53.03737 -3.23103 15003 ft 391 kts 259°
2026-05-05 08:17 53.03226 -3.27569 15515 ft 394 kts 259°
2026-05-05 08:17 53.02709 -3.32056 16027 ft 396 kts 259°
2026-05-05 08:18 53.02186 -3.36565 16520 ft 399 kts 259°
2026-05-05 08:18 53.01663 -3.41052 17003 ft 401 kts 259°
2026-05-05 08:18 53.01129 -3.45625 17470 ft 405 kts 259°
2026-05-05 08:18 53.00587 -3.50237 17926 ft 408 kts 259°
2026-05-05 08:19 53.00041 -3.54873 18386 ft 411 kts 259°
2026-05-05 08:19 52.99488 -3.59558 18784 ft 413 kts 259°
2026-05-05 08:19 52.98931 -3.64251 19176 ft 416 kts 258°
2026-05-05 08:19 52.98370 -3.68970 19557 ft 419 kts 258°
2026-05-05 08:20 52.97801 -3.73734 19932 ft 422 kts 258°
2026-05-05 08:20 52.97227 -3.78519 20318 ft 424 kts 258°
2026-05-05 08:20 52.96648 -3.83335 20690 ft 427 kts 258°
2026-05-05 08:20 52.96063 -3.88176 21035 ft 430 kts 258°
2026-05-05 08:21 52.95473 -3.93049 21381 ft 432 kts 258°
2026-05-05 08:21 52.94884 -3.97892 21742 ft 434 kts 258°
2026-05-05 08:21 52.94282 -4.02820 22090 ft 437 kts 258°
2026-05-05 08:21 52.93675 -4.07778 22419 ft 440 kts 258°
2026-05-05 08:22 52.93061 -4.12767 22733 ft 442 kts 258°
2026-05-05 08:22 52.92444 -4.17769 23069 ft 445 kts 258°
2026-05-05 08:22 52.91819 -4.22813 23377 ft 447 kts 258°
2026-05-05 08:22 52.91190 -4.27872 23675 ft 450 kts 258°
2026-05-05 08:23 52.90556 -4.32953 23965 ft 451 kts 258°
2026-05-05 08:23 52.89917 -4.38061 24177 ft 454 kts 258°
2026-05-05 08:23 52.89271 -4.43201 24411 ft 457 kts 258°
2026-05-05 08:23 52.88628 -4.48296 24684 ft 458 kts 258°
2026-05-05 08:24 52.87973 -4.53465 24909 ft 460 kts 258°
2026-05-05 08:24 52.87310 -4.58680 25117 ft 463 kts 258°
2026-05-05 08:24 52.86644 -4.63897 25334 ft 465 kts 258°
2026-05-05 08:24 52.85971 -4.69153 25544 ft 467 kts 258°
2026-05-05 08:25 52.85293 -4.74430 25769 ft 469 kts 258°
2026-05-05 08:25 52.84612 -4.79706 26070 ft 469 kts 258°
2026-05-05 08:25 52.83929 -4.84979 26383 ft 468 kts 258°
2026-05-05 08:25 52.83245 -4.90238 26725 ft 467 kts 258°
2026-05-05 08:26 52.82561 -4.95481 27035 ft 467 kts 258°
2026-05-05 08:26 52.81873 -5.00737 27352 ft 466 kts 258°
2026-05-05 08:26 52.81186 -5.05962 27663 ft 466 kts 258°
2026-05-05 08:26 52.80496 -5.11191 27991 ft 465 kts 258°
2026-05-05 08:27 52.79806 -5.16405 28317 ft 464 kts 257°
2026-05-05 08:27 52.79114 -5.21613 28638 ft 463 kts 257°
2026-05-05 08:27 52.78421 -5.26809 28981 ft 463 kts 257°
2026-05-05 08:27 52.77728 -5.31985 29288 ft 462 kts 257°
2026-05-05 08:28 52.77269 -5.35411 29486 ft 462 kts 257°
2026-05-05 08:28 52.76570 -5.40607 29800 ft 461 kts 257°
2026-05-05 08:28 52.75646 -5.47448 30223 ft 460 kts 257°
2026-05-05 08:28 52.74942 -5.52604 30501 ft 459 kts 257°
2026-05-05 08:29 52.74221 -5.57724 30731 ft 459 kts 257°
2026-05-05 08:29 52.73735 -5.61122 30873 ft 459 kts 257°
2026-05-05 08:29 52.72996 -5.66251 31101 ft 458 kts 257°
2026-05-05 08:30 52.71520 -5.76439 31676 ft 455 kts 257°
2026-05-05 08:30 52.70786 -5.81506 31940 ft 453 kts 257°
2026-05-05 08:30 52.70053 -5.86557 32075 ft 453 kts 257°
2026-05-05 08:31 52.68575 -5.96706 32072 ft 455 kts 257°
2026-05-05 08:31 52.67091 -6.06834 32073 ft 453 kts 257°
2026-05-05 08:32 52.65617 -6.16833 32073 ft 451 kts 257°
2026-05-05 08:32 52.64129 -6.26857 32079 ft 450 kts 257°
2026-05-05 08:33 52.62633 -6.36871 32076 ft 449 kts 256°
2026-05-05 08:33 52.61135 -6.46839 32082 ft 449 kts 256°
2026-05-05 08:34 52.59627 -6.56811 32081 ft 449 kts 256°
2026-05-05 08:34 52.58110 -6.66777 32087 ft 449 kts 256°
2026-05-05 08:35 52.56594 -6.76675 32082 ft 449 kts 256°
2026-05-05 08:35 52.55059 -6.86643 32089 ft 450 kts 256°
2026-05-05 08:36 52.53515 -6.96603 32093 ft 450 kts 256°
2026-05-05 08:36 52.51962 -7.06562 32094 ft 450 kts 256°
2026-05-05 08:37 52.50402 -7.16504 32097 ft 450 kts 256°
2026-05-05 08:37 52.48835 -7.26433 32096 ft 449 kts 256°
2026-05-05 08:38 52.47262 -7.36349 32098 ft 449 kts 256°
2026-05-05 08:38 52.45307 -7.46038 32098 ft 449 kts 243°
2026-05-05 08:39 52.41746 -7.54416 32093 ft 450 kts 227°
2026-05-05 08:39 52.37354 -7.61708 32102 ft 450 kts 226°
2026-05-05 08:40 52.32973 -7.68915 32103 ft 450 kts 226°
2026-05-05 08:40 52.28582 -7.76207 32107 ft 450 kts 226°
2026-05-05 08:41 52.24195 -7.83519 32108 ft 450 kts 226°
2026-05-05 08:41 52.19804 -7.90824 32110 ft 451 kts 226°
2026-05-05 08:42 52.15406 -7.98117 32108 ft 451 kts 226°
2026-05-05 08:42 52.10996 -8.05405 32105 ft 452 kts 226°
2026-05-05 08:43 52.06579 -8.12685 32107 ft 452 kts 226°
2026-05-05 08:43 52.02158 -8.19947 32103 ft 452 kts 226°
2026-05-05 08:44 51.97757 -8.27158 32101 ft 453 kts 226°
2026-05-05 08:44 51.93322 -8.34402 32103 ft 453 kts 226°
2026-05-05 08:45 51.88869 -8.41658 32102 ft 453 kts 226°
2026-05-05 08:45 51.84684 -8.49282 32105 ft 452 kts 238°
2026-05-05 08:46 51.81978 -8.58378 32118 ft 449 kts 251°
2026-05-05 08:46 51.79925 -8.67865 32105 ft 450 kts 251°
2026-05-05 08:47 51.77846 -8.77405 32108 ft 450 kts 251°
2026-05-05 08:47 51.75728 -8.86932 32104 ft 450 kts 251°
2026-05-05 08:48 51.73590 -8.96431 32115 ft 450 kts 251°
2026-05-05 08:48 51.71442 -9.05916 32121 ft 450 kts 251°
2026-05-05 08:49 51.69286 -9.15398 32127 ft 450 kts 251°
2026-05-05 08:49 51.67124 -9.24862 32124 ft 450 kts 250°
2026-05-05 08:50 51.64959 -9.34303 32122 ft 449 kts 250°
2026-05-05 08:50 51.62800 -9.43676 32122 ft 449 kts 250°
2026-05-05 08:51 51.60615 -9.53117 32122 ft 449 kts 250°
2026-05-05 08:51 51.58423 -9.62551 32112 ft 449 kts 250°
2026-05-05 08:52 51.56242 -9.71891 32121 ft 449 kts 250°
2026-05-05 08:52 51.54040 -9.81282 32122 ft 448 kts 250°
2026-05-05 08:53 51.51831 -9.90664 32126 ft 448 kts 250°
2026-05-05 08:53 51.49618 -10.00021 32126 ft 448 kts 250°
2026-05-05 08:54 51.47410 -10.09315 32127 ft 448 kts 250°
2026-05-05 08:54 51.45154 -10.18772 32130 ft 449 kts 250°
2026-05-05 08:55 51.42944 -10.27998 32126 ft 449 kts 250°
2026-05-05 08:55 51.40697 -10.37333 32127 ft 449 kts 250°
2026-05-05 08:56 51.38440 -10.46673 32130 ft 450 kts 250°
2026-05-05 08:56 51.36171 -10.56026 32132 ft 450 kts 250°
2026-05-05 08:57 51.33895 -10.65363 32129 ft 451 kts 250°
2026-05-05 08:57 51.31605 -10.74719 32127 ft 452 kts 250°
2026-05-05 08:58 51.29321 -10.84010 32133 ft 452 kts 250°
2026-05-05 08:58 51.27032 -10.93284 32137 ft 453 kts 250°
2026-05-05 08:59 51.24713 -11.02641 32138 ft 453 kts 250°
2026-05-05 08:59 51.22385 -11.11992 32134 ft 453 kts 250°
2026-05-05 09:00 51.20050 -11.21335 32142 ft 453 kts 250°
2026-05-05 09:00 51.17709 -11.30660 32140 ft 453 kts 250°
2026-05-05 09:01 51.15373 -11.39927 32140 ft 453 kts 250°
2026-05-05 09:01 51.13017 -11.49237 32153 ft 453 kts 250°
2026-05-05 09:02 51.10657 -11.58524 32149 ft 452 kts 250°
2026-05-05 09:02 51.08292 -11.67792 32158 ft 452 kts 250°
2026-05-05 09:03 51.05921 -11.77046 32156 ft 452 kts 250°
2026-05-05 09:03 51.03543 -11.86290 32155 ft 451 kts 249°
2026-05-05 09:04 51.01160 -11.95523 32142 ft 451 kts 249°
2026-05-05 09:04 50.98809 -12.04746 32158 ft 450 kts 251°
2026-05-05 09:05 50.96602 -12.13972 32159 ft 449 kts 251°
2026-05-05 09:05 50.94396 -12.23250 32160 ft 449 kts 251°
2026-05-05 09:06 50.92170 -12.32505 32164 ft 449 kts 251°
2026-05-05 09:06 50.89928 -12.41743 32166 ft 449 kts 251°
2026-05-05 09:07 50.87677 -12.50969 32166 ft 449 kts 251°
2026-05-05 09:07 50.85420 -12.60177 32168 ft 449 kts 251°
2026-05-05 09:08 50.83153 -12.69392 32170 ft 449 kts 251°
2026-05-05 09:08 50.80880 -12.78592 32172 ft 449 kts 251°
2026-05-05 09:09 50.78599 -12.87787 32174 ft 449 kts 251°
2026-05-05 09:09 50.76323 -12.96923 32176 ft 450 kts 251°